Regional Weather Roundup
Issued by NWS Goodland, KS

Home | Current Version | Previous Version | Graphics & Text | Print | Product List | Glossary On
Versions: 1 2 3 4 5 6 7 8 9 10 11 12 13 14 15 16 17 18 19 20 21 22 23 24 25 26 27 28 29 30 31 32 33 34 35 36 37 38 39 40 41 42 43 44 45 46 47 48 49 50
000
ASUS43 KGLD 301959
RWRGLD

GOODLAND FORECAST AREA HOURLY WEATHER ROUNDUP
NATIONAL WEATHER SERVICE GOODLAND KS
200 PM MDT TUE AUG 30 2016

...OFFICIAL OBSERVATIONS...

CITY           SKY/WX    TMP DP  RH WIND       PRES   REMARKS
GOODLAND KS    CLOUDY    77  59  53 S8        30.24F
HILL CITY KS   PTSUNNY   78  66  66 E5        30.20F
IMPERIAL NEB   CLOUDY    75  63  66 SE8       30.24F
MCCOOK NEB     CLOUDY    76  65  68 E5        30.22F
AKRON CO       CLOUDY    80  49  33 SW5       30.26F
BURLINGTON CO  CLOUDY    77  57  50 SE10      30.26F
LIMON CO       CLOUDY    75  48  38 VRB3      30.29F
$$

...UNOFFICIAL OBSERVATIONS...

CITY           SKY/WX    TMP DP  RH WIND       PRES   REMARKS
COLBY KS       RAIN      72  68  88 SE7       30.25F
LENORA KS        N/A     76  32  20 MISG        N/A
NORTON KS      CLOUDY    75  61  60 CALM      30.21F
SHARON SPRINGS   N/A     76  65  70 S5G12       N/A
TRENTON NEB      N/A     73  32  22 MISG        N/A
YUMA CO          N/A     79  57  46 CALM        N/A
$$




USA.gov is the U.S. government's official web portal to all federal, state and local government web resources and services.